User: anonymous
Location: Vancouver
(49.2500°N, 123.1330°W)
Time: 19:56:58
(UTC-07:00)
Language:

Cosmos 1340 Rocket - Orbit

View from above orbital plane
View from above orbital plane
View from above satellite
View from above satellite

Ground track
Ground track

The orbit data is extracted from the following two-line orbital elements,

1 13068U 82013B   14258.74505617  .00002001  00000-0  14085-3 0  4963
2 13068 081.2025 288.8708 0023583 035.5616 324.7173 15.04402456772156
Epoch (UTC): 15 September 2014 17:52:52
Eccentricity: 0.0023583
inclination: 81.2025°
perigee height: 537 km
apogee height: 569 km
right ascension of ascending node: 288.8708°
argument of perigee: 35.5616°
revolutions per day: 15.04402456
mean anomaly at epoch: 324.7173°
orbit number at epoch: 77215

The dashed part of the orbit path shows where the satellite is in the earth's shadow,  

DLR